Location: City of Moscow
(46.7306°N, 116.9989°W)
Time: 05:39:53
(UTC+00:00)

Orbus 7S? - Pass Details

Date: 20 March 2026
Orbit: 354 x 6170 km, 56.9° (Epoch: 30 September)

Event Time Altitude Azimuth Distance (km) Brightness Sun altitude
Rises 12:47:17 0° 199° (SSW) 10,466 9.5 -11.6°
Reaches altitude 10° 12:54:53 10° 196° (SSW) 9,630 9.3 -10.3°
Maximum altitude 13:31:41 64° 126° (SE) 5,016 8.4 -4.1°
Drops below altitude 10° 13:50:36 10° 52° (NE) 5,514 9.3 -0.8°
Sets 13:53:32 0° 49° (NE) 6,026 9.5 -0.3°
